Location: Unnamed
(51.5169°N, 0.1311°W)
Time: 06:19:04
(UTC+01:00)

Vanguard 1 - Pass Details

Date: 11 August 2024
Orbit: 649 x 3825 km, 34.2° (Epoch: 16 September)

Event Time Altitude Azimuth Distance (km) Brightness Sun altitude
Rises 04:06:05 0° 267° (W) 5,865 13.6 -12.7°
Reaches altitude 10° 04:09:54 10° 258° (WSW) 5,255 13.3 -12.3°
Maximum altitude 04:24:03 34° 201° (SSW) 4,634 13.0 -10.7°
Drops below altitude 10° 04:42:55 10° 147° (SSE) 6,924 14.3 -8.4°
Sets 04:49:06 0° 140° (SE) 7,888 14.7 -7.6°
